Location: Unspecified
(0.0000°N, 0.0000°E)
Time: 05:12:37
(UTC+00:00)

Hubble Space Telescope - Pass Details

Date: 16 January 2018
Orbit: 537 x 541 km, 28.5° (Epoch: 21 July)

Event Time Altitude Azimuth Distance (km) Brightness Sun altitude
Rises 18:36:31 0° 241° (WSW) 2,672 6.7 -6.2°
Reaches altitude 10° 18:38:46 10° 242° (WSW) 1,781 5.2 -6.8°
Maximum altitude 18:42:54 82° 328° (NNW) 541 0.8 -7.7°
Enters shadow 18:46:56 11° 57° (ENE) 1,744 2.7 -8.7°
